Simultaneous Nadir Overpasses (SNOs) Predictions

Prediction of SNOs between AQUA and NPP Satellite Orbit:

Table of predicted SNOs for the next 14.0 days since TLE Epoch: 12/30/2016
Index Date (AQUA) Time (AQUA) Lat,Lon (AQUA) SZA (AQUA ) Date (NPP) Time (NPP) Lat,Lon (NPP) SZA (NPP ) Distance(km) Time Diff (sec)
1 12/31/2016 13:15:41 75.17,-142.24 120.73 12/31/2016 13:14:44 75.17,-142.23 120.78 0.39 57
2 12/31/2016 14:04:47 -76.23, 28.52 60.42 12/31/2016 14:05:07 -76.23, 28.50 60.43 0.62 20
3 01/03/2017 05:32:07 75.33, -25.91 120.40 01/03/2017 05:31:35 75.32, -25.99 120.45 2.46 32
4 01/03/2017 06:21:04 -76.82, 146.39 61.25 01/03/2017 06:21:48 -76.82, 146.49 61.31 2.70 44
5 01/05/2017 21:48:22 76.03, 92.03 119.42 01/05/2017 21:48:14 76.04, 92.06 119.42 1.12 8
6 01/05/2017 22:37:30 -76.96, -97.19 61.64 01/05/2017 22:38:39 -76.97, -97.16 61.71 0.74 69
7 01/08/2017 13:15:44 -75.07, 37.50 59.81 01/08/2017 13:14:44 -75.06, 37.47 59.74 0.97 60
8 01/08/2017 14:04:45 76.28,-151.31 118.87 01/08/2017 14:05:02 76.28,-151.33 118.86 0.46 17
9 01/11/2017 05:32:06 -75.41, 154.32 60.50 01/11/2017 05:31:31 -75.40, 154.25 60.45 2.15 35




NCC Satellite Simultaneous Nadir Overpasses (SNOs) Prediction Service
